Location: Eferding
(48.3167°N, 14.0167°E)
Time: 16:29:11
(UTC+00:00)

Cosmos 1656 - Pass Details

Date: 12 November 2019
Orbit: 800 x 847 km, 71.1° (Epoch: 06 December)

Event Time Altitude Azimuth Distance (km) Brightness Sun altitude
Rises 17:20:06 0° 192° (SSW) 3,358 7.1 -18.4°
Reaches altitude 10° 17:22:34 10° 188° (S) 2,422 6.2 -18.8°
Maximum altitude 17:27:58 57° 111° (ESE) 965 3.7 -19.7°
Enters shadow 17:30:21 32° 49° (NE) 1,376 4.4 -20.1°
